Location: Ahstedt
(52.2048°N, 10.1060°E)
Time: 23:35:51
(UTC+00:00)

COSMO-SKYMED 1 - Pass Details

Date: 18 January 2026
Orbit: 578 x 579 km, 97.9° (Epoch: 7 February)

Event Time Altitude Azimuth Distance (km) Brightness Sun altitude
Rises 04:22:05 0° 156° (SSE) 2,788 6.2 -26.4°
Reaches altitude 10° 04:24:14 10° 153° (SSE) 1,893 5.3 -26.1°
Maximum altitude 04:28:18 65° 72° (ENE) 644 2.7 -25.4°
Enters shadow 04:28:26 64° 59° (ENE) 647 2.7 -25.4°
